User: anonymous   Login
Location: ???????
(55.8860°N, 38.0932°E)
Time: 04:53:34
(UTC+00:00)
Language:

COBE Rocket - Orbit

View from above orbital plane
View from above orbital plane
View from above satellite
View from above satellite

Ground track
Ground track

The orbit data is extracted from the following two-line orbital elements,

1 20323U 89089B   24164.78442142  .00000855  00000-0  22539-3 0  9995
2 20323  97.1164 100.1686 0069540 327.2842  32.4057 14.49536753803711
Epoch (UTC): 12 June 2024 18:49:34
Eccentricity: 0.0069540
inclination: 97.1164°
perigee height: 678 km
apogee height: 776 km
right ascension of ascending node: 100.1686°
argument of perigee: 327.2842°
revolutions per day: 14.49536753
mean anomaly at epoch: 32.4057°
orbit number at epoch: 80371

The dashed part of the orbit path shows where the satellite is in the earth's shadow,  

DLR